Location: Jangalapalle
(16.8036°N, 80.6370°E)
Time: 13:10:55
(UTC+00:00)

Helios 1A - Pass Details

Date: 05 August 2024
Orbit: 570 x 580 km, 98.3° (Epoch: 30 March)

Event Time Altitude Azimuth Distance (km) Brightness Sun altitude
Rises 13:24:29 0° 10° (N) 2,765 6.5 -4.6°
Reaches altitude 10° 13:26:38 10° 10° (N) 1,867 5.7 -5.1°
Maximum altitude 13:30:40 82° 284° (WNW) 578 3.0 -6.0°
Drops below altitude 10° 13:34:42 10° 195° (SSW) 1,864 5.5 -6.9°
Sets 13:36:50 0° 194° (SSW) 2,759 6.3 -7.4°
